If you wish to contribute or participate in the discussions about articles you are invited to join SKYbrary as a registered user

 Actions

Okadama Airport

From SKYbrary Wiki

RJCO
Airport
ICAO: RJCO – IATA: OKD
Summary
Name Okadama Airport
Region Asia and Pacific
Territory Japan JP.gif
Location Okadama-cho, Hokkaidō
Serving Higashi-ku
Elevation 7.925 m
26 ft7.925 m
Coordinates 43° 6' 38.24" N, 141° 22' 55.73" E
Runways
Designator Length Width Surface ROPS
14/32 1500 m4,921.26 ft
45 m147.638 ft
ASP yes/yes


METAR
Observation RJCO 171100Z 30005KT 9999 FEW015 BKN200 17/10 Q1014
Station Sapporo Ab
Date/Time 17 September 2019 11:00:00
Wind direction 300°
Wind speed 05 kts
Lowest cloud amount few clouds
Temperature 17°C
Dew point 10°C
Humidity 63%
QNH 1014 hPa
Weather condition n/a

Sapporo Okadama Airport is an airport located in Okadama-chō, Higashi-ku, Sapporo, Hokkaido, 4 nm7,408 m
7.408 km
24,304.462 ft
north of the city center of Sapporo, Japan.

Climatology

Humid Sub-tropical climate (Köppen climate classification Dfa)

Maps

Terrain

Loading map...

Airport Layout

Loading map...


Accidents & Serious Incidents at or in vicinity of RJCO

None on SKYbrary